Location: Chervonnoye
(48.6000°N, 34.4000°E)
Time: 20:31:24
(UTC+00:00)

Cosmos 1869 - Pass Details

Date: 23 November 2020
Orbit: 515 x 567 km, 82.5° (Epoch: 27 January)

Event Time Altitude Azimuth Distance (km) Brightness Sun altitude
Rises 14:43:34 0° 194° (SSW) 2,697 7.4 -8.1°
Reaches altitude 10° 14:45:43 10° 196° (SSW) 1,818 6.5 -8.4°
Maximum altitude 14:49:43 71° 281° (W) 594 3.7 -9.1°
Drops below altitude 10° 14:53:48 10° 6° (N) 1,862 5.8 -9.7°
Sets 14:56:01 0° 8° (N) 2,769 6.6 -10.0°
